Zurück zum Katalog

FREGAT DEB

AktivUNKNOWN
NORAD 45902·DEBRIS·🇷🇺 Russia

Gestartet Jul 18, 2011 von Baikonur Cosmodrome

Loading…

Nächste Überflüge (nächste 24 Stunden)

TLE

AktuellSource: Space-Track

Epoche: Sep 13, 2026, 07:37 UTC

1 45902U 11037DX  26256.31798902  .00008260  00000-0  13088-2 0  9990
2 45902  51.4327 300.9837 1505822  50.0421 322.3271 12.14108161262565

Verfolge FREGAT DEB in Echtzeit mit AllMySat

Download on the App Store